Location: Pinhead Observatory
(34.4473°N, 118.1985°W)
Time: 23:09:08
(UTC-07:00)

Daily predictions for brighter satellites

Satellite Brightness Start Highest point End
(mag) Time Altitude Azimuth Time Altitude Azimuth Time Altitude Azimuth
CZ-4C R/B 4.1 19:45:37 10° NW 19:52:42 46° WSW 20:00:16 10° S
DELTA 2 R/B (1) 3.7 19:50:00 10° WNW 19:55:37 80° SSW 20:01:13 10° ESE
SWAS 4.4 19:52:29 10° NNW 19:56:47 85° ENE 20:01:04 10° SSE
SJ-6B 2.9 19:54:56 10° SSE 19:58:58 79° ENE 20:03:06 10° N
Meteor 1-11 Rocket 4.2 19:54:01 10° SSE 19:59:28 42° E 20:04:50 10° NNE
SL-16 R/B 2.2 19:54:10 10° S 19:59:45 66° ESE 20:05:23 10° NNE
NOSS 2-3 (D) 3.7 19:57:54 10° SSW 20:02:25 68° ESE 20:07:29 10° NE
USA 267 3.5 19:56:12 10° ESE 20:02:37 61° NE 20:09:03 10° NW
Envisat 4.0 19:58:30 10° SE 20:02:42 27° ENE 20:06:56 10° NNE
Meteor 2-11 Rocket 4.5 19:59:35 10° N 20:05:36 62° E 20:11:35 10° SSE
ALOS 3.6 20:03:57 10° S 20:08:24 44° W 20:12:51 10° NNW
Cosmos 1300 Rocket 4.3 20:05:16 10° SSE 20:09:03 31° E 20:12:52 10° NNE
MINOTAUR R/B 4.2 20:07:26 10° NNW 20:10:12 90° NW 20:12:57 10° SSE
Okean 1 Rocket 4.3 20:07:06 10° SE 20:10:23 21° E 20:13:41 10° NE
Tiangong 1 2.6 20:08:39 10° NW 20:10:56 22° NNE 20:13:12 10° ENE
Cosmos 2360 Rocket 2.7 20:13:48 10° SSE 20:18:50 35° ESE 20:23:53 10° NE
Lacrosse 5 2.0 20:17:38 10° SW 20:22:42 82° NW 20:27:47 10° NE
COSMOS 2428 4.1 20:22:47 14° ESE 20:24:41 16° E 20:28:00 10° ENE
Okean 1 4.2 20:21:24 10° NNW 20:25:16 51° W 20:29:09 10° S
ATLAS 2AS CENTAUR R/B 3.0 20:20:50 10° SSW 20:28:20 78° ESE 20:36:25 10° NNE
Cosmos 1536 3.0 20:24:31 10° S 20:28:28 52° E 20:32:26 10° NNE
Meteor 1-19 Rocket 4.3 20:23:16 10° N 20:29:08 73° E 20:34:52 10° SSE
Cosmos 1110 Rocket 4.4 20:26:07 10° S 20:30:53 39° E 20:35:41 10° NNE
Cosmos 1939 Rocket 3.7 20:28:40 18° ESE 20:30:56 30° ENE 20:34:24 10° N
Lacrosse 5 rocket 2.5 20:27:33 10° WNW 20:30:58 34° SW 20:34:32 10° S
Resurs 01 Rocket 1.6 20:27:30 10° SSE 20:31:57 82° ENE 20:36:25 10° N
Cosmos 2151 Rocket 4.1 20:31:23 10° SSW 20:35:43 61° W 20:40:04 10° N
CZ-2D R/B 3.5 20:32:47 10° S 20:36:37 69° WSW 20:40:29 10° NNW
Meteor 1-5 Rocket 4.2 20:31:55 10° SSE 20:37:04 51° E 20:42:10 10° NNE
Cosmos 2266 Rocket 3.9 20:31:54 10° S 20:37:48 60° E 20:43:43 10° NNE
S3M 4.0 20:32:07 10° N 20:38:26 85° E 20:44:48 10° S
Cosmos 1553 Rocket 4.0 20:32:44 10° N 20:38:53 87° W 20:44:57 10° S
GPS 2-05 Rocket1 2.7 20:35:55 10° W 20:39:21 78° SSW 20:40:51 30° ESE
Abrixas 2.4 20:38:11 10° SSW 20:40:39 42° SE 20:40:46 41° SE
Cosmos 1331 Rocket 4.2 20:37:56 10° S 20:42:50 46° ESE 20:47:49 10° NNE
Cosmos 1850 Rocket 4.0 20:41:14 10° NNW 20:46:34 80° ENE 20:50:48 16° SSE
SeaSat 1 2.3 20:41:41 10° NNE 20:46:37 75° ESE 20:51:31 10° SSW
Cosmos 1536 Rocket 3.7 20:46:01 10° N 20:50:20 73° W 20:54:40 10° S
Meteor 2-4 Rocket 3.7 20:46:07 10° N 20:51:45 81° E 20:57:17 11° S
Cosmos 2315 Rocket 4.4 20:47:36 10° N 20:53:29 41° E 20:56:32 25° SE
ASTRO E2 4.1 21:02:24 10° SW 21:04:48 23° S 21:04:48 23° S
YAOGAN 6 2.4 21:07:51 61° ESE 21:08:07 64° ENE 21:11:36 10° N
OPS 6432 4.3 21:06:47 10° SSW 21:10:51 84° ESE 21:13:07 19° NNE
Spot 2 Rocket 4.5 21:07:14 10° S 21:12:06 45° W 21:16:59 10° NNW
ARGOS 4.2 21:12:44 27° ENE 21:13:04 27° ENE 21:17:31 10° NNE
Helios 1B rocket 2.2 21:10:13 10° NNE 21:14:20 74° ESE 21:15:36 43° S
Cosmos 1818 3.6 21:12:24 10° S 21:17:39 54° ESE 21:22:56 10° NE
Delta 2 Rocket 3.4 21:16:26 10° W 21:20:28 77° N 21:21:18 56° ENE
FALCON 9 R/B 4.1 21:16:07 10° S 21:27:23 20° E 21:34:01 10° ENE
ERS-1 Rocket 3.1 21:26:50 50° E 21:27:07 51° ENE 21:31:58 10° N
Atlas Centaur 2 3.3 21:20:47 10° W 21:28:37 46° SSW 21:30:52 36° SSE
Cosmos 2263 Rocket 2.7 21:23:07 10° NNW 21:28:39 55° WSW 21:31:35 27° S
Meteor 1-29 4.1 21:25:58 10° NNE 21:28:03 35° N 21:28:03 35° N
USA 238 DEB 4.1 21:22:47 10° NNW 21:29:41 51° NE 21:31:39 41° E
USA 238 4.1 21:22:53 10° NNW 21:29:47 51° NE 21:31:45 41° E
OAO 1 Rocket 4.4 21:26:07 10° W 21:31:29 83° N 21:32:37 56° E
Cosmos 1515 4.4 21:30:08 10° N 21:32:57 46° NNE 21:32:57 46° NNE
Cosmos 2278 Rocket 4.3 21:32:07 10° NNE 21:34:14 12° NE 21:34:14 12° NE
Cosmos 1844 Rocket 3.6 21:30:08 10° N 21:35:08 32° ENE 21:35:08 32° ENE
Okean 2 3.5 21:35:35 10° N 21:39:20 70° NW 21:39:20 70° NW
Cosmos 2237 4.4 21:34:25 10° SSW 21:40:05 71° WNW 21:45:47 10° NNE
MetOp-B 4.1 21:39:59 59° E 21:40:05 59° ENE 21:45:21 10° N
Cosmos 1238 Rocket 3.9 21:34:25 10° N 21:40:59 60° E 21:41:34 57° ESE
ATLAS 3B R/B 2.5 21:34:56 10° NNW 21:41:36 70° ENE 21:42:49 57° ESE
Cosmos 1241 Rocket 4.5 21:35:05 10° SSW 21:41:39 89° WNW 21:48:12 10° NNE
Cosmos 1500 4.2 21:45:45 44° NNW 21:45:45 44° NNW 21:48:33 10° N
USA 267 4.5 21:42:27 21° S 21:45:46 32° SW 21:51:29 10° WNW
Tiangong 1 4.0 21:43:46 10° WNW 21:44:21 15° WNW 21:44:21 15° WNW
Cosmos 2219 Rocket 3.2 21:49:03 32° NE 21:49:03 32° NE 21:52:11 10° NNE
Cosmos 1975 4.3 21:48:40 29° N 21:48:40 29° N 21:50:42 10° N
Meteosat 1 Rocket2 4.2 21:43:57 10° WSW 21:49:01 50° S 21:49:01 50° S
Cosmos 1025 Rocket 3.8 21:46:23 10° NNW 21:50:30 46° W 21:50:44 46° WSW
Intelsat 5-1 Rocket 4.2 21:35:48 10° WSW 21:55:16 47° SSW 21:57:02 43° SSE
H-2A R/B 3.0 21:58:36 36° NNE 21:58:36 36° NNE 22:01:55 10° N
SPOT 5 3.8 22:01:36 40° NNE 22:01:36 40° NNE 22:04:43 10° N
Cosmos 2360 Rocket 4.1 21:58:05 10° WSW 22:02:49 27° WNW 22:07:34 10° N
COSMOS 2428 3.2 22:04:26 20° SW 22:08:21 58° WNW 22:14:01 10° NNE
Meteor 1-12 Rocket 4.3 22:08:45 73° W 22:08:52 73° W 22:14:30 10° N
Aureole 3 Rocket 3.9 22:03:01 10° N 22:10:45 84° W 22:11:02 81° SW
Cosmos 1486 Rocket 4.4 22:07:24 10° NNW 22:11:37 59° NNW 22:11:37 59° NNW
Cosmos 1844 4.4 22:11:49 10° NNW 22:16:07 46° NNE 22:16:07 46° NNE
Cosmos 2333 Rocket 3.5 22:24:07 31° NNE 22:24:07 31° NNE 22:26:58 10° NNE
CENTAUR R/B 4.4 22:23:15 10° N 22:29:38 26° NE 22:30:41 25° NE
NOSS 3-4 (A) 3.8 22:31:02 62° N 22:31:02 62° N 22:36:31 10° NNE
NOSS 3-4 (C) 3.8 22:31:18 60° N 22:31:18 60° N 22:36:38 10° NNE
Cosmos 2237 Rocket 4.2 22:39:08 19° NNE 22:39:08 19° NNE 22:40:39 10° NNE
Terra 4.0 22:39:11 20° N 22:39:11 20° N 22:40:45 10° N
NOSS 3-2 (A) 4.5 23:10:16 10° NW 23:16:28 54° WNW 23:16:28 54° WNW
Cosmos 2278 Rocket 3.9 23:13:29 10° NNW 23:16:04 28° NNW 23:16:04 28° NNW
Cosmos 2219 Rocket 4.4 23:30:41 20° WNW 23:30:56 20° WNW 23:34:58 10° NNW
